Showing default

IRIDE-MS1-EAG2-13, 68450

Orbit data source: Space-Track

IRIDE-MS1-EAG2-13, 68450 is an Italian payload satellite in SSO that was launched on Mon, 30 Mar 2026 UTC via an FALCON 9 launch vehicle from the Air Force Western Test Range (AFWTR). Payload-class satellites include a variety of spacecraft equipped with specific instruments for various scientific and technological missions. These include communications satellites like Starlink; space stations such as the ISS; scientific satellites like the Hubble; Earth observation satellites from companies like Planet Labs, Umbra, and HawkEye 360; GPS; miniature CubeSats for education and research; and military/defense satellites.

Loading next visibility...
Identifier
68450, 2026-067AL
Orbit
SSO
Country
Flag of ITIT
Related business
Manufacturer
OHB-I
Mission
Operational spacecraft
Bus & Motor
EAGLET, Unknown motor
Mass
25 kg wet, 25 kg dry
Launch date (UTC)
2026-03-30 (2 months ago)
Launch vehicle
FALCON 9
Launch site
Air Force Western Test Range (AFWTR)
Object type
Payload
Rocket body
Debris
Shape & HBR
Unknown shape, 1.1 m
Radar Cross Section
Medium (>0.1 m² and <1 m²)

Expand to show TLE details & history
Last TLE update: 4 days ago

TLE from 4 days ago
0 IRIDE-MS1-EAG2-13
1 68450U 26067AL  26153.83023876  .00009258  00000-0  45025-3 0  9991
2 68450  97.4542 112.5280 0004019  82.2346 277.9345 15.18620852  9761
Epoch: 2026-06-02T19:55Z
TLE epoch observation values (Epoch: 2026-06-02T19:55:32.628Z)
Latitude
0.00001°
Longitude
-77.65553°
Altitude
512.714 km
Speed
7.608 km/s
True Right ascension
07h 30m 06s
True Declination
0° 00' 00"
Sunlit
Object was in daylight at epoch
Visualization orbit readout
Latitude
Unknown
Longitude
Unknown
Altitude
Unknown
Speed
Unknown
Apparent Right ascension
Unknown
Apparent Declination
Unknown
Sunlit
N/A
Visualization observer readout
Local Sidereal Time
02:31:05
Azimuth
Unknown
Elevation
Unknown
Doppler factor
Unknown
Orbital elements
Apogee altitude
509.745 km
Perigee altitude
504.21 km
Semi-major axis
6,885.115 km
Eccentricity
0.0004
Inclination
97.4542°
RAAN
112.528°
Arg. of periapsis
82.2346°
True anomaly
277.88888°
Mean anomaly
277.9345°
Eccentric anomaly
277.91169°
Mean motion
3.79906 °/min
Orbital period
94.76 mins
BSTAR
0.00045025
Loading maneuver chart data...
Computing Atmospheric mass density...
Loading historical data...
Loading historical data...
Loading historical data...
Loading historical data...
Loading historical data...
Loading historical data...
Loading historical data...

Documentation

Showing up to 5 results
|